sat.trackr.live / text

‹ back to catalog

STARLINK-36158

NORAD 67080 · 2025-298F

PAYLOAD ACTIVE UNKNOWN

§ Identity

Operator
Country
US
Launch date
2025-12-14
Launch site
AFWTR
Launch vehicle
Mass (kg)
RCS (m²)

Purposes: comms

External: N2YO · Heavens-Above · Gunter

§ Orbital elements

Epoch: 2026-09-19T21:46:14.755008Z

Period
96.11 min
Inclination
69.9988°
Eccentricity
0.0003728
Mean motion
14.98329668 rev/d
Perigee alt
569.5 km
Apogee alt
574.6 km
Semi-major
6,950.2 km
B*
2.2999e-4
RAAN
244.5902°
Arg perigee
265.0527°
Mean anomaly
95.0206°
Rev number
4,231

§ Raw data

STARLINK-361581 67080U 25298F   26262.90711522  .00002652  00000+0  22999-3 0  99902 67080  69.9988 244.5902 0003728 265.0527  95.0206 14.98329668 42313

JSON: /api/v1/satellites/67080 · /tle

For live sub-satellite position, see the globe view (requires WebGL).

§ Visibility from observer

Set your observer location to see the next 7 days of passes ≥ 10°. The values pass through the URL so the page stays shareable.

No JS? Fill the form by hand. The geolocation button needs JavaScript.